Location: Mohawk View
(42.7837°N, 73.7885°W)
Time: 08:24:42
(UTC+00:00)

Meteor 1-24 Rocket - Pass Details

Date: 01 November 2021
Orbit: 790 x 927 km, 81.3° (Epoch: 27 November)

Event Time Altitude Azimuth Distance (km) Brightness Sun altitude
Rises 07:55:04 0° 136° (SE) 3,311 7.1 -39.5°
Reaches altitude 10° 07:58:38 10° 111° (ESE) 2,409 6.5 -38.9°
Maximum altitude 08:01:15 14° 82° (E) 2,176 6.5 -38.4°
Drops below altitude 10° 08:03:54 10° 53° (NE) 2,457 6.8 -37.9°
Sets 08:07:35 0° 29° (NNE) 3,430 7.4 -37.3°
